[Iaude] MPEC E99: 2014 OS393 [a=44.04,e=0.02,i=3.8,H=9.98]

mpec at cfa.harvard.edu mpec at cfa.harvard.edu
Wed Mar 6 15:04:59 EST 2024


M.P.E.C. 2024-E99                                 Issued 2024 March 6, 20:03 UT

     The Minor Planet Electronic Circulars contain information on unusual
         minor planets, routine data on comets and natural satellites,
         and occasional editorial announcements.  They are published
    on behalf of Division F of the International Astronomical Union by the
          Minor Planet Center, Smithsonian Astrophysical Observatory,
                          Cambridge, MA 02138, U.S.A.
			  
             Prepared using the Tamkin Foundation Computer Network

                              MPC at CFA.HARVARD.EDU
            URL https://www.minorplanetcenter.net/    ISSN 1523-6714

                                   2014 OS393                                   


Additional Observations:
     K14Od3S 3C2017 07 20.25325 19 00 15.192-20 31 50.50         26.2 rVEE099266
     K14Od3S 3C2017 07 20.27714 19 00 15.082-20 31 50.63         25.9 rVEE099266
     K14Od3S 3C2017 07 20.39364 19 00 14.514-20 31 51.71         26.2 rVEE099266
     K14Od3S 3C2017 07 20.41604 19 00 14.410-20 31 51.82         25.9 rVEE099266
     K14Od3S 3C2017 07 20.53088 19 00 13.851-20 31 52.84         26.2 rVEE099266
     K14Od3S 3C2017 07 20.55184 19 00 13.755-20 31 52.93         25.9 rVEE099266
     K14Od3S 3C2017 07 21.26989 19 00 10.360-20 31 59.09         25.5 rVEE099266
     K14Od3S 3C2017 07 21.39163 19 00 09.774-20 32 00.13         25.5 rVEE099266
     K14Od3S 3C2017 07 21.52175 19 00 09.148-20 32 01.20         25.5 rVEE099266

Observer details:
266 New Horizons KBO Search-Subaru.  Observer S. B. Porter.  8.2mn Subaru
    Telescope + CCD.

Orbital elements:
2014 OS393                                                                      
Epoch 2024 Mar. 31.0 TT = JDT 2460400.5                 Alexandersen            
M  30.93141              (2000.0)            P               Q                  
n   0.00337226     Peri.  122.55293     -0.15695894     +0.98662088             
a  44.0408180      Node   138.34508     -0.92689421     -0.13175542             
e   0.0176598      Incl.    3.80281     -0.34092670     -0.09601955             
P 292              H    9.98          G   0.15           U   7                  
Residuals in seconds of arc
140625 266  0.0   0.0     140821 250  0.0   0.0     170720 266  0.1+  0.1+
140625 266  0.1-  0.0     140821 250  0.0   0.0     170720 266  0.0   0.0
140625 266  0.1+  0.1+    140823 250  0.0   0.0     170720 266  0.1+  0.1+
140625 266  0.1+  0.1+    140823 250  0.0   0.0     170720 266  0.0   0.0
140627 266  0.0   0.1+    140823 250  0.0   0.0     170720 266  0.1+  0.1+
140627 266  0.0   0.1+    140823 250  0.0   0.0     170721 266  0.1-  0.0
140730 250  0.0   0.1-    140823 250  0.0   0.0     170721 266  0.1-  0.0
140730 250  0.0   0.0     141016 250  0.0   0.0     170721 266  0.1-  0.0
140730 250  0.0   0.0     141024 250  0.0   0.0
140730 250  0.0   0.0     170720 266  0.0   0.0

Ephemeris:
2014 OS393               a,e,i = 44.04, 0.02, 4                  q = 43.2631
Date    TT    R. A. (2000) Decl.     Delta      r    Elong.  Phase     V
2024 02 05    19 39 09.5 -19 51 02  44.2876 43.3761    22.1     0.5    26.5
...
2024 02 20    19 40 36.6 -19 47 27  44.1624 43.3764    36.9     0.8    26.5
...
2024 02 28    19 41 18.1 -19 45 41  44.0734 43.3766    44.8     0.9    26.5
...
2024 03 05    19 41 46.4 -19 44 26  43.9978 43.3768    50.7     1.0    26.5
2024 03 06    19 41 50.9 -19 44 14  43.9845 43.3768    51.7     1.0    26.5
2024 03 07    19 41 55.3 -19 44 02  43.9711 43.3768    52.7     1.0    26.5
...
2024 03 13    19 42 20.0 -19 42 54  43.8867 43.3769    58.6     1.1    26.5
...
2024 03 21    19 42 48.4 -19 41 34  43.7658 43.3771    66.4     1.2    26.5
...
2024 04 05    19 43 26.2 -19 39 38  43.5209 43.3775    81.1     1.3    26.5

M. P. C. Staff               (C) Copyright 2024 MPC           M.P.E.C. 2024-E99





More information about the Iaude mailing list